Location: Brachbach
(49.1847°N, 9.7240°E)
Time: 02:30:45
(UTC+00:00)

NPP - Pass Details

Date: 23 May 2024
Orbit: 826 x 827 km, 98.7° (Epoch: 19 June)

Event Time Altitude Azimuth Distance (km) Brightness Sun altitude
Rises 00:59:11 0° 17° (NNE) 3,379 8.6 -16.6°
Reaches altitude 10° 01:01:35 10° 20° (NNE) 2,441 7.4 -16.5°
Maximum altitude 01:06:57 64° 102° (ESE) 916 3.9 -16.1°
Enters shadow 01:10:36 21° 179° (S) 1,789 4.9 -15.8°
